Location: Gouy
(50.0008°N, 3.2556°E)
Time: 06:18:58
(UTC+00:00)

Cosmos 2228 Rocket - Pass Details

Date: 23 May 2024
Orbit: 616 x 648 km, 82.5° (Epoch: 19 June)

Event Time Altitude Azimuth Distance (km) Brightness Sun altitude
Exits shadow 00:05:26 37° 148° (SSE) 981 3.7 -19.2°
Maximum altitude 00:06:50 53° 94° (E) 778 3.5 -19.2°
Drops below altitude 10° 00:11:13 10° 18° (NNE) 2,036 6.9 -19.1°
Sets 00:13:31 0° 14° (NNE) 2,955 8.2 -19.1°
